Location: Newark
(51.7378°N, 19.8125°E)
Time: 05:01:36
(UTC+00:00)

Envisat - Pass Details

Date: 15 December 2019
Orbit: 764 x 766 km, 98.1° (Epoch: 20 January)

Event Time Altitude Azimuth Distance (km) Brightness Sun altitude
Rises 04:51:39 0° 20° (NNE) 3,247 6.3 -15.7°
Reaches altitude 10° 04:54:10 10° 30° (NNE) 2,315 5.6 -15.3°
Maximum altitude 04:58:49 35° 95° (E) 1,233 4.8 -14.6°
Drops below altitude 10° 05:03:26 10° 161° (SSE) 2,298 6.0 -14.0°
Sets 05:05:55 0° 170° (S) 3,219 6.7 -13.6°
